Location: Camp at the Woods
(43.2055°N, 93.0905°W)
Time: 10:31:15
(UTC+00:00)

BlueWalker 3 - Pass Details

Date: 23 April 2024
Orbit: 482 x 494 km, 53.2° (Epoch: 22 May)

Event Time Altitude Azimuth Distance (km) Brightness Sun altitude
Rises 04:29:59 0° 303° (WNW) 2,582 6.4 -29.5°
Reaches altitude 10° 04:32:37 10° 321° (NW) 1,700 5.5 -29.8°
Enters shadow 04:35:15 19° 4° (N) 1,222 4.4 -30.0°
